Location: Lango�lan
(48.1202°N, 3.2340°W)
Time: 07:42:01
(UTC+00:00)

Cosmos 2327 Rocket - Pass Details

Date: 23 October 2019
Orbit: 943 x 1009 km, 83.0° (Epoch: 20 November)

Event Time Altitude Azimuth Distance (km) Brightness Sun altitude
Rises 04:12:35 0° 183° (S) 3,662 7.4 -25.8°
Reaches altitude 10° 04:15:06 10° 182° (S) 2,709 6.7 -25.4°
Maximum altitude 04:21:18 81° 96° (E) 979 4.5 -24.3°
Drops below altitude 10° 04:27:27 10° 11° (N) 2,688 7.0 -23.3°
Sets 04:29:56 0° 10° (N) 3,632 7.7 -22.9°
